N5CNB Weather Reports


time (UTC)temp
C
wind
direction
speed
KPH
gust
KPH
rain 1hr
cm
rain 24hr
cm
rain mn
cm
humidity
%
barometer
mb
20260505223004 27 57 16.1 32.2 0.00 0.00 0.00 77 1006.8
20260505221507 27 156 14.5 29.0 0.00 0.00 0.00 76 1006.7
20260505220006 27 198 11.3 29.0 0.00 0.00 0.00 76 1006.8
20260505214506 27 51 14.5 30.6 0.00 0.00 0.00 75 1006.9
20260505213006 28 106 12.9 25.7 0.00 0.00 0.00 76 1007.2
20260505211504 28 226 16.1 30.6 0.00 0.00 0.00 75 1007.5
20260505210006 28 164 14.5 24.1 0.00 0.00 0.00 74 1007.5
20260505204505 27 144 17.7 29.0 0.00 0.00 0.00 77 1007.7
20260505203005 27 145 14.5 29.0 0.00 0.00 0.00 75 1008.0
20260505201507 28 128 8.0 29.0 0.00 0.00 0.00 76 1008.2
20260505200013 28 105 16.1 29.0 0.00 0.00 0.00 75 1008.3
20260505194506 28 181 9.7 24.1 0.00 0.00 0.00 75 1008.6
20260505193008 27 184 9.7 33.8 0.00 0.00 0.00 77 1008.8
20260505191507 27 153 16.1 27.4 0.00 0.00 0.00 78 1008.9
20260505190005 27 179 11.3 24.1 0.00 0.00 0.00 78 1009.0
20260505184506 27 208 9.7 19.3 0.00 0.00 0.00 77 1009.0
20260505183007 26 136 9.7 19.3 0.00 0.00 0.00 79 1009.1
20260505181508 26 153 12.9 25.7 0.00 0.00 0.00 80 1009.2
20260505180009 26 240 9.7 19.3 0.00 0.00 0.00 79 1009.2
20260505174505 27 160 9.7 20.9 0.00 0.00 0.00 79 1009.4
20260505170014 26 259 4.8 17.7 0.00 0.00 0.00 81 1009.8
20260505164505 26 228 6.4 19.3 0.00 0.00 0.00 82 1009.9
20260505163009 25 118 6.4 19.3 0.00 0.00 0.00 84 1009.8
20260505161509 25 264 9.7 22.5 0.00 0.00 0.00 83 1009.9
20260505153010 24 269 8.0 14.5 0.00 0.00 0.00 85 1009.7
20260505151509 23 160 6.4 19.3 0.00 0.00 0.00 86 1009.7
20260505123009 20 193 6.4 11.3 0.00 0.00 0.00 91 1009.0
20260505121514 20 165 6.4 9.7 0.00 0.00 0.00 91 1009.1
20260505120017 20 195 3.2 9.7 0.00 0.00 0.00 91 1009.0
20260505114515 20 255 1.6 9.7 0.00 0.00 0.00 91 1008.9
20260505113018 20 161 3.2 12.9 0.00 0.00 0.00 91 1008.7
20260505111514 20 194 4.8 11.3 0.00 0.00 0.00 91 1008.6
20260505101519 20 207 3.2 11.3 0.00 0.00 0.00 91 1008.8
20260505100017 20 195 3.2 12.9 0.00 0.00 0.00 91 1008.9
20260505094517 19 233 4.8 12.9 0.00 0.00 0.00 90 1008.7
20260505093019 19 200 8.0 14.5 0.00 0.00 0.00 90 1008.9
20260505091515 19 191 1.6 6.4 0.00 0.00 0.00 90 1009.2
20260505090019 20 145 1.6 6.4 0.00 0.00 0.00 90 1009.1
20260505084518 20 205 4.8 9.7 0.00 0.00 0.00 89 1009.2
20260505083018 20 152 3.2 11.3 0.00 0.00 0.00 89 1009.3
20260505081529 20 144 6.4 11.3 0.00 0.00 0.00 89 1009.5
20260505080020 20 169 3.2 12.9 0.00 0.00 0.00 88 1009.6
20260505074521 20 131 3.2 12.9 0.00 0.00 0.00 88 1009.7
20260505073018 20 217 3.2 11.3 0.00 0.00 0.00 88 1009.9
20260505071539 20 174 4.8 12.9 0.00 0.00 0.00 88 1009.9
20260505070021 20 185 8.0 17.7 0.00 0.00 0.00 87 1009.9
20260505064524 20 230 6.4 16.1 0.00 0.00 0.00 87 1010.0
20260505063015 20 243 4.8 20.9 0.00 0.00 0.00 87 1010.0
20260505061518 20 125 4.8 16.1 0.00 0.00 0.00 86 1010.2
20260505060020 20 134 9.7 20.9 0.00 0.00 0.00 86 1010.2
20260505054532 20 205 8.0 16.1 0.00 0.00 0.00 85 1010.4
20260505041516 21 212 8.0 19.3 0.00 0.00 0.00 83 1011.1
20260505040026 21 133 8.0 17.7 0.00 0.00 0.00 82 1011.2
20260505033030 21 140 11.3 27.4 0.00 0.00 0.00 81 1010.9
20260505031525 21 140 9.7 20.9 0.00 0.00 0.00 80 1011.1
20260505030024 21 184 9.7 22.5 0.00 0.00 0.00 80 1011.1
20260505021526 22 217 6.4 22.5 0.00 0.00 0.00 78 1010.8
20260505020024 22 229 6.4 19.3 0.00 0.00 0.00 78 1010.8
20260505014514 22 232 12.9 29.0 0.00 0.00 0.00 77 1010.5
20260505013019 23 155 11.3 24.1 0.00 0.00 0.00 77 1010.4
20260505011524 23 199 11.3 22.5 0.00 0.00 0.00 76 1010.3
20260505010024 23 186 9.7 20.9 0.00 0.00 0.00 75 1010.1
20260505004526 23 249 8.0 19.3 0.00 0.00 0.00 73 1010.2
20260505003018 24 143 11.3 24.1 0.00 0.00 0.00 72 1010.4
20260505001519 24 172 4.8 19.3 0.00 0.00 0.00 72 1010.3
20260505000028 24 188 9.7 24.1 0.00 0.00 0.00 72 1010.5
20260504234524 25 188 12.9 25.7 0.00 0.00 0.00 71 1010.7
20260504233024 25 207 12.9 30.6 0.00 0.00 0.00 70 1010.6
20260504231517 26 37 11.3 24.1 0.00 0.00 0.00 68 1010.8
20260504230020 25 124 11.3 29.0 0.00 0.00 0.00 69 1010.8
20260504224526 26 165 16.1 27.4 0.00 0.00 0.00 66 1010.8